Lid_Strength_Index
4 4 4 4 4 4 7 11 14 9 8 12 13 13 11 9 9 9 9 9 10 12 12 13 13 13 11 9 9 12 11 14 17 14 13 12 13 14 14 17 17 17 17 17
4 4 4 4 4 5 9 13 13 9 9 15 15 12 10 10 10 11 10 11 11 11 12 14 11 11 9 9 10 12 11 14 17 16 14 12 13 13 13 14 15 17 18 17
4 4 4 4 4 4 9 12 15 13 13 14 15 15 13 12 11 11 10 11 11 12 13 12 12 12 10 10 10 7 9 13 14 17 15 13 14 12 12 13 17 17 16 14
4 4 4 4 4 4 9 13 15 13 17 15 15 15 14 15 15 13 12 13 13 14 15 14 14 13 12 10 9 12 14 16 14 14 13 13 13 12 12 13 13 15 14 12
5 5 4 4 4 4 10 14 15 12 15 14 15 14 15 15 14 13 14 14 14 14 16 15 16 15 14 14 13 13 13 17 16 17 14 14 15 13 13 12 12 13 12 13
5 5 4 4 4 6 12 11 11 13 14 15 16 16 15 14 13 13 12 13 14 15 14 13 13 13 13 13 15 15 15 16 17 19 16 15 17 15 14 15 15 14 17 15
5 5 4 4 4 5 10 10 11 14 17 15 15 14 13 14 14 15 13 13 15 12 11 12 12 13 13 13 13 13 16 16 17 19 17 21 15 13 12 14 15 15 15 15
5 5 4 4 4 4 8 9 11 13 18 15 14 13 14 14 13 14 13 12 12 12 12 15 17 16 15 14 13 13 13 16 18 20 20 17 15 14 15 15 15 14 15 14
5 5 4 4 4 4 8 9 8 11 15 16 12 14 13 16 16 15 13 10 11 12 14 16 19 20 18 18 15 12 13 14 17 18 20 19 16 13 11 11 15 13 13 14
5 5 5 4 4 4 7 8 7 10 14 12 12 14 14 13 14 16 14 13 13 12 16 17 19 19 15 19 19 18 17 14 16 16 18 16 14 12 11 15 16 12 12 13
5 5 5 4 4 4 6 8 6 9 13 12 10 10 12 13 13 16 14 14 13 14 16 15 15 17 15 16 15 16 17 18 19 17 18 18 11 12 15 13 12 11 12 12
4 4 4 4 4 3 5 8 6 6 10 11 8 8 8 8 9 12 12 13 13 13 15 16 16 18 18 17 21 14 18 15 15 15 16 11 11 12 10 10 12 11 11 10
3 3 3 3 3 3 5 8 8 8 11 12 11 11 8 7 7 7 12 12 10 11 9 13 15 18 15 20 18 17 14 11 15 15 13 12 10 9 9 9 9 9 9 9
3 3 3 3 3 3 3 8 7 9 10 17 13 7 9 7 7 6 7 8 8 9 10 13 17 16 13 16 14 15 11 11 13 13 11 11 9 9 8 7 7 7 7 7
3 3 3 3 3 3 5 6 6 6 10 16 12 9 8 7 8 7 7 7 8 10 12 11 13 11 11 12 12 13 9 11 13 13 9 9 9 7 6 6 7 6 7 7
3 3 3 3 3 3 6 10 6 4 4 9 16 9 8 7 6 7 8 7 8 7 8 8 8 7 8 13 15 10 7 7 7 9 7 7 6 6 6 6 6 6 7 7
3 3 2 2 2 5 7 9 6 2 4 10 14 14 8 6 7 7 7 6 5 5 6 7 9 8 7 9 13 8 7 5 5 5 6 8 7 8 6 6 6 6 7 7
2 2 1 1 1 2 6 4 2 3 7 8 12 13 10 6 8 9 4 6 5 6 7 8 9 8 9 11 8 7 6 6 6 6 6 7 7 6 7 7 7 8 9 9
2 1 1 3 5 8 7 1 1 2 6 11 10 12 15 6 7 7 6 5 9 6 8 9 8 10 11 8 8 7 6 7 7 7 7 7 7 8 8 8 9 10 10 10
0 4 7 10 7 1 2 4 7 6 6 6 8 8 11 7 9 11 8 7 10 14 10 7 9 10 6 6 5 6 6 6 7 9 9 8 9 9 9 9 9 9 10 10
5 8 8 6 2 4 8 9 9 8 10 7 6 8 9 7 10 10 8 12 9 12 12 12 16 13 8 6 6 5 4 5 6 7 7 8 8 8 8 9 9 9 9 10
5 6 3 4 7 8 10 11 12 11 13 10 9 9 8 8 6 9 10 10 10 15 9 11 16 9 7 6 6 5 6 6 6 6 7 8 7 8 8 9 9 9 9 9
3 6 8 8 8 11 13 19 12 16 9 8 8 10 8 8 8 8 10 11 12 9 13 14 10 8 7 6 5 6 6 6 6 7 7 7 7 8 8 9 8 9 9 10
7 8 11 11 14 12 14 13 12 9 8 8 8 10 7 6 10 13 11 10 11 14 19 13 10 8 7 6 5 6 7 6 7 7 7 8 8 8 8 8 8 9 10 10
7 7 11 11 11 12 10 9 8 7 6 6 8 8 8 8 11 11 13 13 13 13 13 9 9 8 7 6 7 7 7 7 7 7 7 8 8 8 9 9 10 10 10 11
7 7 10 10 11 13 12 11 8 6 5 6 7 12 12 12 14 13 12 18 15 12 9 8 7 7 7 7 7 7 7 9 7 7 6 8 8 9 10 10 10 11 11 11
8 8 8 12 12 10 9 7 7 5 6 12 10 11 11 12 18 16 11 12 10 8 8 8 7 7 7 7 7 7 8 7 7 7 7 8 8 10 10 12 11 11 11 12